GW1637 Weather Reports


time (UTC)temp
C
wind
direction
speed
KPH
gust
KPH
rain 1hr
cm
rain 24hr
cm
rain mn
cm
humidity
%
barometer
mb
20240423233007 15 9 8.0 12.9 0.00 0.00 0.00 39 1018.3
20240423232505 15 337 6.4 12.9 0.00 0.00 0.00 39 1018.1
20240423232004 15 307 9.7 14.5 0.00 0.00 0.00 36 1018.0
20240423231504 15 55 12.9 17.7 0.00 0.00 0.00 37 1018.1
20240423231002 15 350 12.9 19.3 0.00 0.00 0.00 37 1018.2
20240423230501 16 324 9.7 14.5 0.00 0.00 0.00 36 1018.1
20240423230000 16 27 9.7 11.3 0.00 0.00 0.00 36 1018.0
20240423225500 15 307 9.7 22.5 0.00 0.00 0.00 36 1017.8
20240423224958 15 345 17.7 22.5 0.00 0.00 0.00 36 1018.2
20240423224457 15 29 12.9 17.7 0.00 0.00 0.00 37 1018.2
20240423223956 15 17 9.7 17.7 0.00 0.00 0.00 38 1018.2
20240423223455 15 24 6.4 14.5 0.00 0.00 0.00 38 1018.0
20240423222955 15 2 9.7 9.7 0.00 0.00 0.00 37 1018.2
20240423222454 15 12 9.7 9.7 0.00 0.00 0.00 38 1018.0
20240423221954 15 74 4.8 9.7 0.00 0.00 0.00 38 1017.8
20240423221452 16 98 16.1 16.1 0.00 0.00 0.00 35 1017.7
20240423220950 15 64 8.0 12.9 0.00 0.00 0.00 35 1017.7
20240423220449 15 92 11.3 11.3 0.00 0.00 0.00 35 1017.8
20240423215949 15 74 6.4 9.7 0.00 0.00 0.00 37 1018.1
20240423215445 14 52 3.2 6.4 0.00 0.00 0.00 36 1018.3
20240423214919 14 31 6.4 9.7 0.00 0.00 0.00 37 1018.3
20240423214419 15 23 3.2 8.0 0.00 0.00 0.00 37 1018.1
20240423213918 15 30 6.4 14.5 0.00 0.00 0.00 36 1018.3
20240423213417 15 349 3.2 11.3 0.00 0.00 0.00 36 1018.4
20240423212917 15 18 8.0 14.5 0.00 0.00 0.00 36 1018.5
20240423212414 15 71 0.0 8.0 0.00 0.00 0.00 34 1018.4
20240423211913 15 327 3.2 16.1 0.00 0.00 0.00 36 1018.5
20240423211411 15 344 6.4 9.7 0.00 0.00 0.00 35 1018.4
20240423210910 13 104 9.7 12.9 0.00 0.00 0.00 36 1018.7
20240423210409 14 96 9.7 12.9 0.00 0.00 0.00 35 1018.5
20240423205908 14 110 6.4 14.5 0.00 0.00 0.00 35 1018.5
20240423205406 14 75 6.4 11.3 0.00 0.00 0.00 37 1018.5
20240423204904 13 64 4.8 8.0 0.00 0.00 0.00 37 1018.9
20240423204403 13 282 0.0 11.3 0.00 0.00 0.00 37 1018.9
20240423203903 13 93 4.8 6.4 0.00 0.00 0.00 38 1018.7
20240423203403 12 94 4.8 8.0 0.00 0.00 0.00 38 1018.8
20240423202902 12 106 4.8 9.7 0.00 0.00 0.00 38 1018.5
20240423202400 13 94 9.7 11.3 0.00 0.00 0.00 38 1018.7
20240423201858 13 61 4.8 6.4 0.00 0.00 0.00 37 1019.0
20240423201357 13 38 4.8 11.3 0.00 0.00 0.00 38 1018.8
20240423200857 13 83 8.0 16.1 0.00 0.00 0.00 37 1018.8
20240423200356 14 93 11.3 12.9 0.00 0.00 0.00 35 1018.7
20240423195854 13 104 8.0 8.0 0.00 0.00 0.00 36 1018.5
20240423195352 13 192 4.8 6.4 0.00 0.00 0.00 36 1018.7
20240423194851 12 98 16.1 16.1 0.00 0.00 0.00 37 1018.8
20240423194347 13 143 8.0 19.3 0.00 0.00 0.00 35 1018.7
20240423193843 14 148 11.3 19.3 0.00 0.00 0.00 35 1018.5
20240423193342 12 73 11.3 12.9 0.00 0.00 0.00 37 1018.5
20240423192841 13 78 16.1 16.1 0.00 0.00 0.00 35 1018.8
20240423192340 13 98 11.3 17.7 0.00 0.00 0.00 35 1018.9
20240423191839 13 156 11.3 20.9 0.00 0.00 0.00 35 1019.0
20240423191338 13 53 9.7 22.5 0.00 0.00 0.00 34 1019.0
20240423190837 13 156 11.3 14.5 0.00 0.00 0.00 35 1018.9
20240423190337 13 109 8.0 14.5 0.00 0.00 0.00 34 1018.9
20240423185835 12 116 8.0 14.5 0.00 0.00 0.00 36 1019.1
20240423185334 12 77 3.2 9.7 0.00 0.00 0.00 34 1019.0
20240423184835 11 40 4.8 11.3 0.00 0.00 0.00 35 1019.4
20240423184333 12 92 9.7 16.1 0.00 0.00 0.00 35 1019.3
20240423183832 12 105 8.0 9.7 0.00 0.00 0.00 37 1019.3
20240423183332 11 90 11.3 17.7 0.00 0.00 0.00 36 1019.5
20240423182831 11 12 9.7 14.5 0.00 0.00 0.00 36 1019.4
20240423182330 12 82 14.5 16.1 0.00 0.00 0.00 36 1019.6
20240423181830 12 38 8.0 12.9 0.00 0.00 0.00 35 1019.4
20240423181330 11 76 16.1 16.1 0.00 0.00 0.00 36 1019.6
20240423180829 12 72 6.4 9.7 0.00 0.00 0.00 36 1019.6
20240423180328 11 98 4.8 8.0 0.00 0.00 0.00 36 1019.3
20240423175826 11 8 3.2 6.4 0.00 0.00 0.00 35 1019.8
20240423175325 11 32 4.8 11.3 0.00 0.00 0.00 36 1019.8
20240423174824 11 97 4.8 12.9 0.00 0.00 0.00 35 1019.7
20240423174323 11 0 0.0 12.9 0.00 0.00 0.00 35 1019.7
20240423173823 11 19 3.2 8.0 0.00 0.00 0.00 35 1019.8
20240423173321 10 49 3.2 12.9 0.00 0.00 0.00 36 1019.7
20240423172821 11 107 8.0 12.9 0.00 0.00 0.00 35 1019.8
20240423172320 11 176 3.2 9.7 0.00 0.00 0.00 35 1020.1
20240423171819 11 82 6.4 16.1 0.00 0.00 0.00 35 1020.0
20240423171317 12 81 3.2 9.7 0.00 0.00 0.00 35 1019.7
20240423170816 11 0 4.8 12.9 0.00 0.00 0.00 35 1019.8
20240423170315 10 101 9.7 14.5 0.00 0.00 0.00 35 1019.6
20240423165813 11 151 11.3 12.9 0.00 0.00 0.00 33 1020.3
20240423165310 12 40 4.8 11.3 0.00 0.00 0.00 33 1019.7
20240423164809 11 97 9.7 17.7 0.00 0.00 0.00 34 1020.1
20240423164309 11 216 4.8 11.3 0.00 0.00 0.00 34 1020.1
20240423163808 10 10 8.0 12.9 0.00 0.00 0.00 36 1020.2
20240423163244 11 120 0.0 4.8 0.00 0.00 0.00 34 1020.2
20240423162743 10 171 4.8 12.9 0.00 0.00 0.00 37 1020.6
20240423162236 11 177 8.0 11.3 0.00 0.00 0.00 35 1020.3
20240423161735 10 148 3.2 4.8 0.00 0.00 0.00 35 1020.3
20240423161234 9 291 4.8 6.4 0.00 0.00 0.00 38 1020.4
20240423160734 10 122 8.0 8.0 0.00 0.00 0.00 38 1020.2
20240423160234 9 18 6.4 9.7 0.00 0.00 0.00 37 1020.3
20240423155734 10 77 11.3 11.3 0.00 0.00 0.00 38 1020.4
20240423155233 10 102 4.8 6.4 0.00 0.00 0.00 37 1020.6
20240423154732 10 88 8.0 9.7 0.00 0.00 0.00 37 1020.6
20240423154230 9 74 4.8 8.0 0.00 0.00 0.00 38 1020.4
20240423153729 9 52 4.8 11.3 0.00 0.00 0.00 37 1020.7
20240423153228 9 64 4.8 4.8 0.00 0.00 0.00 38 1020.6
20240423152726 8 11 4.8 4.8 0.00 0.00 0.00 37 1020.4
20240423152225 8 346 8.0 8.0 0.00 0.00 0.00 38 1020.6
20240423151723 8 275 3.2 9.7 0.00 0.00 0.00 37 1020.6
20240423151222 10 45 4.8 4.8 0.00 0.00 0.00 37 1020.7
20240423150722 10 276 1.6 8.0 0.00 0.00 0.00 36 1020.4
20240423150221 8 354 0.0 4.8 0.00 0.00 0.00 37 1020.9
20240423145719 8 5 0.0 8.0 0.00 0.00 0.00 37 1020.9
20240423145218 8 347 4.8 11.3 0.00 0.00 0.00 38 1020.3
20240423144717 9 78 1.6 8.0 0.00 0.00 0.00 36 1020.9
20240423144216 9 90 3.2 4.8 0.00 0.00 0.00 36 1020.7
20240423143714 8 250 6.4 6.4 0.00 0.00 0.00 38 1020.9
20240423143214 8 244 4.8 9.7 0.00 0.00 0.00 37 1020.9
20240423142713 8 3 8.0 9.7 0.00 0.00 0.00 36 1021.0
20240423142212 7 14 6.4 12.9 0.00 0.00 0.00 38 1021.3
20240423141711 8 0 4.8 8.0 0.00 0.00 0.00 39 1021.1
20240423141209 8 23 1.6 6.4 0.00 0.00 0.00 37 1020.9
20240423140707 9 55 6.4 8.0 0.00 0.00 0.00 36 1020.8
20240423140206 8 348 3.2 4.8 0.00 0.00 0.00 38 1021.0
20240423135705 8 0 0.0 12.9 0.00 0.00 0.00 39 1020.8
20240423135204 8 347 12.9 14.5 0.00 0.00 0.00 38 1021.0
20240423134703 8 342 9.7 20.9 0.00 0.00 0.00 39 1020.8
20240423134203 8 353 9.7 12.9 0.00 0.00 0.00 39 1021.0
20240423133701 7 10 4.8 14.5 0.00 0.00 0.00 39 1020.9
20240423133200 7 331 8.0 12.9 0.00 0.00 0.00 40 1021.1
20240423132700 7 341 8.0 20.9 0.00 0.00 0.00 41 1021.1
20240423132159 7 345 3.2 11.3 0.00 0.00 0.00 42 1021.0
20240423131657 7 13 9.7 17.7 0.00 0.00 0.00 41 1020.9
20240423131155 7 348 8.0 16.1 0.00 0.00 0.00 42 1020.9
20240423130655 7 23 4.8 9.7 0.00 0.00 0.00 42 1020.8
20240423130153 6 318 9.7 17.7 0.00 0.00 0.00 42 1020.6
20240423125653 7 26 3.2 6.4 0.00 0.00 0.00 42 1020.4
20240423125153 7 349 8.0 12.9 0.00 0.00 0.00 42 1020.2
20240423124653 7 357 6.4 8.0 0.00 0.00 0.00 43 1020.3
20240423124153 7 356 3.2 6.4 0.00 0.00 0.00 43 1020.1
20240423123652 6 17 9.7 11.3 0.00 0.00 0.00 43 1020.0
20240423123151 6 4 6.4 12.9 0.00 0.00 0.00 43 1020.0
20240423122652 6 28 3.2 9.7 0.00 0.00 0.00 44 1020.1
20240423122150 6 0 3.2 16.1 0.00 0.00 0.00 43 1019.8
20240423121649 6 357 6.4 16.1 0.00 0.00 0.00 44 1019.7
20240423121149 6 355 4.8 12.9 0.00 0.00 0.00 45 1019.6
20240423120648 6 9 0.0 9.7 0.00 0.00 0.00 45 1019.6
20240423120146 6 275 6.4 12.9 0.00 0.00 0.00 46 1019.4
20240423115646 6 348 8.0 11.3 0.00 0.00 0.00 46 1019.5
20240423115144 6 8 8.0 11.3 0.00 0.00 0.00 45 1019.6
20240423114644 6 335 4.8 12.9 0.00 0.00 0.00 43 1019.3
20240423114143 6 304 8.0 11.3 0.00 0.00 0.00 44 1019.4
20240423113642 6 296 8.0 12.9 0.00 0.00 0.00 44 1019.4
20240423113140 6 321 4.8 12.9 0.00 0.00 0.00 45 1019.3
20240423112638 6 322 3.2 12.9 0.00 0.00 0.00 45 1019.0
20240423112136 6 292 4.8 11.3 0.00 0.00 0.00 46 1019.0
20240423111635 6 35 1.6 4.8 0.00 0.00 0.00 50 1019.1
20240423111135 6 3 0.0 4.8 0.00 0.00 0.00 50 1019.0
20240423110635 6 353 1.6 3.2 0.00 0.00 0.00 50 1018.9
20240423110134 6 291 0.0 3.2 0.00 0.00 0.00 50 1018.5
20240423105633 6 16 0.0 6.4 0.00 0.00 0.00 49 1018.5
20240423105132 6 18 0.0 9.7 0.00 0.00 0.00 49 1018.5
20240423104631 6 19 0.0 3.2 0.00 0.00 0.00 49 1018.5
20240423104130 6 0 4.8 8.0 0.00 0.00 0.00 48 1018.2
20240423103630 6 324 3.2 8.0 0.00 0.00 0.00 48 1018.2
20240423103130 6 315 6.4 8.0 0.00 0.00 0.00 46 1018.0
20240423102628 7 30 6.4 9.7 0.00 0.00 0.00 45 1018.1
20240423102128 7 20 11.3 12.9 0.00 0.00 0.00 45 1017.8
20240423101627 7 45 3.2 12.9 0.00 0.00 0.00 45 1017.8
20240423101127 7 68 3.2 14.5 0.00 0.00 0.00 44 1017.5
20240423100626 7 351 14.5 22.5 0.00 0.00 0.00 43 1017.6
20240423100125 7 356 16.1 20.9 0.00 0.00 0.00 43 1017.7
20240423095625 7 356 11.3 29.0 0.00 0.00 0.00 43 1017.2
20240423095123 7 347 16.1 29.0 0.00 0.00 0.00 45 1017.0
20240423094622 7 357 17.7 20.9 0.00 0.00 0.00 46 1017.2
20240423094120 7 8 9.7 27.4 0.00 0.00 0.00 47 1016.8
20240423093620 7 14 6.4 25.7 0.00 0.00 0.00 48 1016.9
20240423093119 7 343 17.7 20.9 0.00 0.00 0.00 48 1017.0
20240423092619 8 347 0.0 25.7 0.00 0.00 0.00 48 1016.9
20240423092117 8 338 14.5 33.8 0.00 0.00 0.00 49 1016.3
20240423091616 8 326 16.1 27.4 0.00 0.00 0.00 52 1016.3
20240423091115 8 342 16.1 27.4 0.00 0.00 0.00 55 1015.8
20240423090614 8 23 22.5 24.1 0.00 0.00 0.00 57 1015.9
20240423090112 9 24 16.1 29.0 0.00 0.00 0.00 56 1015.8
20240423085610 9 355 20.9 30.6 0.00 0.00 0.00 56 1015.4
20240423085110 10 310 4.8 33.8 0.00 0.00 0.00 55 1015.4
20240423084609 10 347 16.1 35.4 0.00 0.00 0.00 53 1015.0
20240423084107 11 349 25.7 37.0 0.00 0.00 0.00 51 1014.5
20240423083607 14 303 20.9 33.8 0.00 0.00 0.00 40 1013.6
20240423083106 15 280 6.4 20.9 0.00 0.00 0.00 34 1012.9
20240423082604 15 241 9.7 12.9 0.00 0.00 0.00 34 1012.6
20240423082104 15 248 6.4 17.7 0.00 0.00 0.00 34 1012.8
20240423081603 15 298 4.8 9.7 0.00 0.00 0.00 34 1012.6
20240423081103 15 255 12.9 16.1 0.00 0.00 0.00 34 1012.9
20240423080602 15 214 6.4 19.3 0.00 0.00 0.00 33 1012.5
20240423080101 16 249 4.8 22.5 0.00 0.00 0.00 33 1012.6
20240423075600 16 241 9.7 22.5 0.00 0.00 0.00 32 1012.9
20240423075059 16 274 22.5 25.7 0.00 0.00 0.00 32 1012.6
20240423074558 17 249 14.5 41.8 0.00 0.00 0.00 30 1013.0
20240423074057 16 241 16.1 22.5 0.00 0.00 0.00 30 1012.6
20240423073557 16 280 16.1 24.1 0.00 0.00 0.00 31 1012.9
20240423073056 17 292 4.8 35.4 0.00 0.00 0.00 30 1013.1
20240423072555 17 272 8.0 24.1 0.00 0.00 0.00 30 1013.1
20240423072054 17 272 9.7 32.2 0.00 0.00 0.00 29 1013.2
20240423071552 16 200 8.0 22.5 0.00 0.00 0.00 32 1012.6
20240423071052 15 243 6.4 16.1 0.00 0.00 0.00 33 1013.0
20240423070549 15 218 3.2 12.9 0.00 0.00 0.00 34 1012.6
20240423070048 15 183 3.2 20.9 0.00 0.00 0.00 34 1012.5
20240423065547 15 227 4.8 19.3 0.00 0.00 0.00 34 1012.6
20240423065047 15 261 12.9 14.5 0.00 0.00 0.00 35 1012.6
20240423064545 13 276 4.8 4.8 0.00 0.00 0.00 39 1012.4
20240423064044 13 192 3.2 8.0 0.00 0.00 0.00 39 1012.5
20240423063543 13 192 6.4 8.0 0.00 0.00 0.00 39 1012.2
20240423063043 13 248 4.8 8.0 0.00 0.00 0.00 39 1012.2
20240423062542 13 206 1.6 8.0 0.00 0.00 0.00 40 1012.2
20240423062042 12 198 4.8 8.0 0.00 0.00 0.00 42 1012.0
20240423061540 12 228 3.2 8.0 0.00 0.00 0.00 42 1012.0
20240423061038 12 208 3.2 6.4 0.00 0.00 0.00 41 1012.3
20240423060537 13 216 3.2 9.7 0.00 0.00 0.00 41 1012.0
20240423060037 12 203 1.6 8.0 0.00 0.00 0.00 43 1012.0
20240423055536 12 197 3.2 6.4 0.00 0.00 0.00 42 1012.0
20240423055035 12 229 4.8 4.8 0.00 0.00 0.00 43 1012.2
20240423054534 12 155 4.8 8.0 0.00 0.00 0.00 42 1011.9
20240423054033 12 300 0.0 1.6 0.00 0.00 0.00 43 1011.7
20240423053531 13 218 3.2 4.8 0.00 0.00 0.00 41 1011.7
20240423053031 13 90 0.0 0.0 0.00 0.00 0.00 39 1011.6
20240423052529 15 320 3.2 6.4 0.00 0.00 0.00 38 1011.8
20240423052029 13 24 3.2 6.4 0.00 0.00 0.00 41 1011.7
20240423051528 13 29 0.0 1.6 0.00 0.00 0.00 40 1011.5
20240423051027 13 183 4.8 6.4 0.00 0.00 0.00 39 1011.6
20240423050525 14 186 4.8 12.9 0.00 0.00 0.00 38 1011.5
20240423050024 13 187 3.2 9.7 0.00 0.00 0.00 39 1011.2
20240423045522 13 201 3.2 9.7 0.00 0.00 0.00 39 1011.6
20240423045021 15 151 3.2 8.0 0.00 0.00 0.00 38 1011.3
20240423044520 15 229 4.8 4.8 0.00 0.00 0.00 36 1011.3
20240423044020 15 222 4.8 4.8 0.00 0.00 0.00 36 1011.7
20240423043518 15 255 6.4 8.0 0.00 0.00 0.00 34 1011.6
20240423043016 16 235 4.8 11.3 0.00 0.00 0.00 33 1011.7
20240423042514 15 191 4.8 9.7 0.00 0.00 0.00 36 1011.6
20240423042014 15 187 3.2 8.0 0.00 0.00 0.00 36 1011.5
20240423041513 15 195 4.8 8.0 0.00 0.00 0.00 35 1011.6
20240423041013 15 198 3.2 8.0 0.00 0.00 0.00 36 1011.6
20240423040511 15 180 3.2 4.8 0.00 0.00 0.00 37 1011.6
20240423040010 15 168 0.0 4.8 0.00 0.00 0.00 36 1011.9
20240423035508 15 180 0.0 6.4 0.00 0.00 0.00 35 1011.3
20240423035007 16 240 4.8 9.7 0.00 0.00 0.00 33 1011.3
20240423034506 16 231 6.4 6.4 0.00 0.00 0.00 33 1011.6
20240423034004 16 240 0.0 4.8 0.00 0.00 0.00 34 1011.7
20240423033503 16 197 4.8 6.4 0.00 0.00 0.00 34 1011.6
20240423033002 15 229 0.0 3.2 0.00 0.00 0.00 35 1011.5
20240423032502 15 259 3.2 3.2 0.00 0.00 0.00 35 1011.6
20240423032001 16 246 0.0 4.8 0.00 0.00 0.00 34 1011.5
20240423031500 16 260 3.2 3.2 0.00 0.00 0.00 34 1011.1
20240423030959 16 261 0.0 3.2 0.00 0.00 0.00 33 1011.2
20240423030457 16 117 1.6 3.2 0.00 0.00 0.00 33 1011.1
20240423025955 17 180 0.0 3.2 0.00 0.00 0.00 32 1011.1
20240423025454 17 254 3.2 3.2 0.00 0.00 0.00 31 1011.2
20240423024953 17 270 3.2 4.8 0.00 0.00 0.00 30 1011.1
20240423024451 17 276 4.8 9.7 0.00 0.00 0.00 30 1011.2
20240423023950 18 291 1.6 6.4 0.00 0.00 0.00 30 1011.1
20240423023449 18 292 3.2 12.9 0.00 0.00 0.00 30 1011.1
20240423022947 18 231 4.8 4.8 0.00 0.00 0.00 30 1011.0
20240423022445 18 274 4.8 9.7 0.00 0.00 0.00 29 1011.2
20240423021943 18 253 6.4 14.5 0.00 0.00 0.00 30 1011.0
20240423021442 18 200 6.4 14.5 0.00 0.00 0.00 29 1011.0
20240423020940 18 242 9.7 14.5 0.00 0.00 0.00 29 1011.0
20240423020439 18 262 16.1 24.1 0.00 0.00 0.00 30 1011.1
20240423015937 18 247 3.2 12.9 0.00 0.00 0.00 30 1010.9
20240423015436 18 246 11.3 11.3 0.00 0.00 0.00 30 1010.9
20240423014935 18 351 3.2 14.5 0.00 0.00 0.00 29 1010.9
20240423014434 18 272 14.5 32.2 0.00 0.00 0.00 29 1011.0
20240423013933 19 245 9.7 32.2 0.00 0.00 0.00 29 1011.0
20240423013432 19 234 14.5 32.2 0.00 0.00 0.00 28 1011.2
20240423012930 20 289 3.2 22.5 0.00 0.00 0.00 26 1011.0
20240423012428 20 208 8.0 41.8 0.00 0.00 0.00 25 1011.2
20240423011928 20 262 9.7 37.0 0.00 0.00 0.00 25 1011.0
20240423011427 20 264 14.5 32.2 0.00 0.00 0.00 25 1010.7
20240423010926 20 270 16.1 38.6 0.00 0.00 0.00 24 1011.0
20240423010425 20 282 8.0 22.5 0.00 0.00 0.00 25 1010.9
20240423005923 21 259 4.8 27.4 0.00 0.00 0.00 24 1010.7
20240423005423 21 278 20.9 38.6 0.00 0.00 0.00 23 1010.6
20240423004921 21 292 4.8 30.6 0.00 0.00 0.00 23 1010.4
20240423004420 22 264 4.8 12.9 0.00 0.00 0.00 23 1010.5
20240423003920 22 257 12.9 16.1 0.00 0.00 0.00 23 1010.2
20240423003419 22 273 6.4 12.9 0.00 0.00 0.00 23 1010.2
20240423002918 22 292 6.4 25.7 0.00 0.00 0.00 23 1010.2
20240423002417 22 287 17.7 37.0 0.00 0.00 0.00 22 1010.2
20240423001917 23 232 17.7 29.0 0.00 0.00 0.00 22 1010.3
20240423001414 23 245 16.1 19.3 0.00 0.00 0.00 22 1009.9
20240423000914 23 228 12.9 25.7 0.00 0.00 0.00 22 1009.8
20240423000413 23 275 11.3 22.5 0.00 0.00 0.00 20 1009.8
20240422235913 23 246 4.8 12.9 0.00 0.00 0.00 21 1009.9
20240422235411 23 239 6.4 24.1 0.00 0.00 0.00 20 1010.2
20240422234910 23 240 6.4 17.7 0.00 0.00 0.00 20 1010.0
20240422234409 23 250 19.3 24.1 0.00 0.00 0.00 19 1009.9
20240422233908 23 270 6.4 24.1 0.00 0.00 0.00 21 1010.2
20240422233405 23 285 16.1 41.8 0.00 0.00 0.00 20 1010.2